This page uses our WeatherBlox Daily Observations layout. Learn more.

Hourly Observations for May 7, 2018

Temp ( °F °C ) Dew Point ( °F °C ) Humidity (%) Winds ( mph kmh ) Pressure ( in mb ) Visibility ( mi km ) Precip ( " mm )
12:15 am 00:15 Clear 55 13 54 12 94 94 NNW 5 7 29.97 1015 10 16.09344 0 0
12:35 am 00:35 Mostly Cloudy 55 13 55 13 100 100 NNW 7 11 29.97 1015 10 16.09344 0 0
12:55 am 00:55 Cloudy 55 13 55 13 100 100 N 6 9 29.97 1015 10 16.09344 0 0
1:15 am 01:15 Cloudy 55 13 55 13 100 100 NNE 5 7 29.97 1015 10 16.09344 0 0
1:35 am 01:35 Cloudy 55 13 55 13 100 100 Calm 29.97 1015 10 16.09344 0 0
1:55 am 01:55 Cloudy 55 13 55 13 100 100 Calm 29.97 1015 10 16.09344 0 0
2:15 am 02:15 Cloudy 55 13 54 12 94 94 Calm 29.97 1015 10 16.09344 0 0
2:35 am 02:35 Cloudy 54 12 54 12 100 100 Calm 29.97 1015 10 16.09344 0 0
2:55 am 02:55 Mostly Cloudy 54 12 54 12 100 100 N 3 6 29.97 1015 10 16.09344 0 0
3:15 am 03:15 Mostly Cloudy 54 12 54 12 100 100 NNE 3 6 30 1016 10 16.09344 0 0
3:35 am 03:35 Cloudy 54 12 54 12 100 100 N 5 7 30 1016 10 16.09344 0 0
3:55 am 03:55 Partly Cloudy 54 12 54 12 100 100 N 3 6 30 1016 10 16.09344 0 0
4:15 am 04:15 Clear 52 11 52 11 100 100 N 3 6 30 1016 10 16.09344 0 0
4:35 am 04:35 Clear 52 11 52 11 100 100 N 5 7 30 1016 10 16.09344 0 0
4:55 am 04:55 Clear 52 11 52 11 100 100 N 3 6 30 1016 10 16.09344 0 0
5:15 am 05:15 Clear 50 10 50 10 100 100 N 3 6 30 1016 7 11.265408 0 0
5:35 am 05:35 Clear 52 11 52 11 100 100 N 6 9 30 1016 7 11.265408 0 0
5:55 am 05:55 Clear 50 10 50 10 100 100 N 5 7 30.03 1017 7 11.265408 0 0
6:15 am 06:15 Sunny with Mist and Fog 50 10 50 10 100 100 NNW 5 7 30.03 1017 4 6.437376 0 0
6:35 am 06:35 Sunny with Mist and Fog 50 10 50 10 100 100 NNW 3 6 30.03 1017 5 8.04672 0 0
6:55 am 06:55 Sunny with Mist and Fog 50 10 50 10 100 100 Calm 30.09 1019 5 8.04672 0 0
7:15 am 07:15 Sunny with Mist and Fog 52 11 52 11 100 100 Calm 30.06 1018 5 8.04672 0 0
7:35 am 07:35 Sunny 54 12 52 11 94 94 Calm 30.06 1018 7 11.265408 0 0
7:55 am 07:55 Sunny 54 12 54 12 100 100 Calm 30.09 1019 10 16.09344 0 0
8:15 am 08:15 Sunny 55 13 54 12 94 94 N 3 6 30.09 1019 10 16.09344 0 0
8:35 am 08:35 Sunny 59 15 54 12 82 82 N 6 9 30.09 1019 10 16.09344 0 0
8:55 am 08:55 Sunny 59 15 54 12 82 82 NE 7 11 30.09 1019 10 16.09344 0 0
9:15 am 09:15 Sunny 61 16 54 12 77 77 NE 7 11 30.09 1019 10 16.09344 0 0
9:35 am 09:35 Sunny 61 16 54 12 77 77 N 10 17 30.09 1019 10 16.09344 0 0
9:55 am 09:55 Sunny 61 16 54 12 77 77 NNE 9 15 30.09 1019 10 16.09344 0 0
10:15 am 10:15 Sunny 63 17 54 12 73 73 NNE 8 13 30.09 1019 10 16.09344 0 0
10:35 am 10:35 Sunny 64 18 54 12 68 68 NNE 8 13 30.09 1019 10 16.09344 0 0
10:55 am 10:55 Sunny 64 18 54 12 68 68 N 8 13 30.09 1019 10 16.09344 0 0
11:15 am 11:15 Partly Cloudy 64 18 54 12 68 68 N 10 17 30.12 1020 10 16.09344 0 0
11:35 am 11:35 Sunny 66 19 54 12 64 64 NNE 7 11 30.12 1020 10 16.09344 0 0
11:55 am 11:55 Sunny 68 20 55 13 64 64 NNE 8 13 30.12 1020 10 16.09344 0 0
12:15 pm 12:15 Sunny 68 20 54 12 60 60 NE 3 6 30.09 1019 10 16.09344 0 0
12:35 pm 12:35 Sunny 70 21 55 13 60 60 ENE 6 9 30.09 1019 10 16.09344 0 0
12:55 pm 12:55 Sunny 70 21 54 12 57 57 Calm 30.09 1019 10 16.09344 0 0
1:15 pm 13:15 Sunny 70 21 55 13 60 60 Calm 30.09 1019 10 16.09344 0 0
1:35 pm 13:35 Mostly Cloudy 72 22 54 12 53 53 Calm 30.09 1019 10 16.09344 0 0
1:55 pm 13:55 Mostly Cloudy 72 22 55 13 57 57 Calm 30.09 1019 10 16.09344 0 0
2:15 pm 14:15 Mostly Cloudy 72 22 55 13 57 57 NE 7 11 30.09 1019 10 16.09344 0 0
2:35 pm 14:35 Mostly Cloudy 73 23 55 13 53 53 W 7 11 30.09 1019 10 16.09344 0 0
2:55 pm 14:55 Cloudy 72 22 54 12 53 53 Calm 30.09 1019 10 16.09344 0 0
3:15 pm 15:15 Mostly Cloudy 73 23 55 13 53 53 NNE 7 11 30.09 1019 10 16.09344 0 0
3:35 pm 15:35 Mostly Cloudy 73 23 55 13 53 53 N 6 9 30.09 1019 10 16.09344 0 0
3:55 pm 15:55 Cloudy 73 23 55 13 53 53 ENE 6 9 30.09 1019 10 16.09344 0 0
4:15 pm 16:15 Mostly Cloudy 73 23 54 12 50 50 N 7 11 30.09 1019 10 16.09344 0 0
4:35 pm 16:35 Mostly Cloudy 73 23 55 13 53 53 NNE 6 9 30.09 1019 10 16.09344 0 0
4:55 pm 16:55 Partly Cloudy 73 23 54 12 50 50 N 7 11 30.09 1019 10 16.09344 0 0
5:15 pm 17:15 Partly Cloudy 73 23 54 12 50 50 NNE 6 9 30.09 1019 10 16.09344 0 0
5:35 pm 17:35 Mostly Cloudy 73 23 54 12 50 50 N 9 15 30.09 1019 10 16.09344 0 0
5:55 pm 17:55 Cloudy 75 24 54 12 47 47 NE 6 9 30.09 1019 10 16.09344 0 0
6:15 pm 18:15 Partly Cloudy 73 23 54 12 50 50 NNE 8 13 30.09 1019 10 16.09344 0 0
6:35 pm 18:35 Sunny 73 23 54 12 50 50 NNE 7 11 30.09 1019 10 16.09344 0 0
6:55 pm 18:55 Sunny 73 23 54 12 50 50 NE 6 9 30.09 1019 10 16.09344 0 0
7:15 pm 19:15 Sunny 72 22 54 12 53 53 NNE 7 11 30.09 1019 10 16.09344 0 0
7:35 pm 19:35 Sunny 72 22 54 12 53 53 NNE 7 11 30.09 1019 10 16.09344 0 0
7:55 pm 19:55 Sunny 72 22 54 12 53 53 NNE 7 11 30.09 1019 10 16.09344 0 0
8:15 pm 20:15 Clear 70 21 54 12 57 57 NNE 6 9 30.12 1020 10 16.09344 0 0
8:35 pm 20:35 Clear 70 21 54 12 57 57 NNE 3 6 30.12 1020 10 16.09344 0 0
8:55 pm 20:55 Clear 68 20 55 13 64 64 N 5 7 30.12 1020 10 16.09344 0 0
9:15 pm 21:15 Mostly Cloudy 68 20 55 13 64 64 NNE 5 7 30.12 1020 10 16.09344 0 0
9:35 pm 21:35 Cloudy 68 20 55 13 64 64 Calm 30.15 1021 10 16.09344 0 0
9:55 pm 21:55 Mostly Cloudy 68 20 55 13 64 64 Calm 30.15 1021 10 16.09344 0 0
10:15 pm 22:15 Clear 63 17 55 13 77 77 Calm 30.15 1021 10 16.09344 0 0
10:35 pm 22:35 Clear 64 18 55 13 73 73 Calm 30.15 1021 10 16.09344 0 0
10:55 pm 22:55 Clear 61 16 55 13 83 83 Calm 30.15 1021 10 16.09344 0 0
11:15 pm 23:15 Clear 59 15 55 13 88 88 Calm 30.15 1021 10 16.09344 0 0
11:35 pm 23:35 Clear 61 16 55 13 83 83 Calm 30.15 1021 10 16.09344 0 0
11:55 pm 23:55 Clear 59 15 55 13 88 88 Calm 30.18 1022 10 16.09344 0 0

Powered by AerisWeather